This is the latest recevied weather packets stored in our database for station/object KC5DAQ-27. If no packets are shown the sender has not sent any weather packets the latest 10 day(s).
| Time | Temp. | Humidity | Pressure | Rain* | Wind** | Luminosity | Snow |
|---|---|---|---|---|---|---|---|
| 1787951508 | 28.33° C | 72% | 1006.2 hPa | 0 mm | - | 48 W/m² | - |
| 1787951447 | 29.44° C | 69% | 1006.4 hPa | 0 mm | - | 48 W/m² | - |
| 1787951387 | 30° C | 69% | 1006.3 hPa | 0 mm | - | 42 W/m² | - |
| 1787951328 | 30° C | 66% | 1006 hPa | 0 mm | - | 42 W/m² | - |
| 1787951267 | 30.56° C | 64% | 1006 hPa | 0 mm | - | 42 W/m² | - |
| 1787951207 | 30.56° C | 65% | 1006 hPa | 0 mm | - | 42 W/m² | - |
| 1787951147 | 31.11° C | 66% | 1006.1 hPa | 0 mm | - | 42 W/m² | - |
| 1787951088 | 31.67° C | 64% | 1005.9 hPa | 0 mm | - | 42 W/m² | - |
| 1787951026 | 32.22° C | 62% | 1005.9 hPa | 0 mm | - | 44 W/m² | - |
| 1787950966 | 32.78° C | 61% | 1006.1 hPa | 0 mm | - | 48 W/m² | - |
| 1787950907 | 33.89° C | 59% | 1006.1 hPa | 0 mm | - | 53 W/m² | - |
| 1787950846 | 34.44° C | 58% | 1006.1 hPa | 0 mm | - | 65 W/m² | - |
| 1787950786 | 35.56° C | 56% | 1006 hPa | 0 mm | - | 74 W/m² | - |
| 1787950727 | 35.56° C | 55% | 1005.8 hPa | 0 mm | - | 86 W/m² | - |
| 1787950668 | 36.11° C | 55% | 1005.7 hPa | 0 mm | - | 95 W/m² | - |
| 1787950607 | 36.11° C | 55% | 1005.5 hPa | 0 mm | - | 107 W/m² | - |
| 1787950546 | 36.11° C | 55% | 1005.5 hPa | 0 mm | - | 125 W/m² | - |
| 1787950488 | 36.67° C | 54% | 1005.3 hPa | 0 mm | - | 176 W/m² | - |
| 1787950427 | 36.67° C | 54% | 1005.3 hPa | 0 mm | - | 691 W/m² | - |
| 1787950366 | 36.67° C | 54% | 1005.3 hPa | 0 mm | - | 243 W/m² | - |
| 1787950307 | 36.67° C | 53% | 1005.3 hPa | 0 mm | - | 244 W/m² | - |
| 1787950248 | 36.67° C | 53% | 1005.4 hPa | 0 mm | - | 264 W/m² | - |
| 1787950187 | 36.67° C | 53% | 1005.3 hPa | 0 mm | - | 1036 W/m² | - |
| 1787950126 | 37.22° C | 53% | 1005.4 hPa | 0 mm | - | 921 W/m² | - |
| 1787950068 | 37.22° C | 52% | 1005.4 hPa | 0 mm | - | 491 W/m² | - |
* Rain latest hour (hover to see other rain measurements)
** Current wind speed in m/s (hover to see current wind gust speed)